Location: Lugrin
(46.4033°N, 6.6674°E)
Time: 05:24:40
(UTC+00:00)

Tsikada Rocket - Pass Details

Date: 18 January 2021
Orbit: 958 x 1009 km, 82.9° (Epoch: 06 March)

Event Time Altitude Azimuth Distance (km) Brightness Sun altitude
Exits shadow 02:36:59 10° 111° (ESE) 2,682 6.6 -46.4°
Drops below altitude 10° 02:37:02 10° 112° (ESE) 2,693 6.7 -46.4°
Sets 02:40:12 0° 128° (SE) 3,629 7.3 -45.8°
